EHI
0 0 0 0 0 0 0 0 0 0 0 0 0 0 0 0 0 0 0 0 0 0 0 0 0 0 0 0 0 0 0 0 0 0 0 0 0 0 0 0 0 0 0
0 0 0 0 0 0 0 0 0 0 0 0 0 0 0 0 0 0 0 0 0 0 0 0 0 0 0 0 0 0 0 0 0 0 0 0 0 0 0 0 0 0 0
0 0 0 0 0 0 0 0 0 0 0 0 0 0 0 0 0 0 0 0 0 0 0 0 0 0 0 0 0 0 0 0 0 0 0 0 0 0 0 0 0 0 0
0 0 0 0 0 0 0 0 0 0 0 0 0 0 0 0 0 0 0 0 0 0 0 0 0 0 0 0 0 0 0 0 0 0 0 0 0 0 0 0 0 0 0
0 0 0 0 0 0 0 0 0 0 0 0 0 0 0 0 0 0 0 0 0 0 0 0 0 0 0 0 0 0 0 0 0 0 0 0 0 0 0 0 0 0 0
0 0 0 0 0 0 0 0 0 0 0 0 0 0 0 0 0 0 0 0 0 0 0 0 0 0 0 0 0 0 0 0 0 0 0 0 0 0 0 0 0 0 0
0 0 0 0 0 0 0 0 0 0 0 0 0 0 0 0 0 0 0 0 0 0 0 0 0 0 0 0 0 0 0 0 0 0 0 0 0 0 0 0 0 0 0
0 0 0 0 0 0 0 0 0 0 0 0 0 0 0 0 0 0 0 0 0 0 0 0 0 0 0 0 0 0 0 0 0 0 0 0 0 0 0 0 0 0 0
0 0 0 0 0 0 0 0 0 0 0 0 0 0 0 0 0 0 0 0 0 0 0 0 0 0 0 0 0 0 0 0 0 0 0 0 0 0 0 0 0 0 0
0 0 0 0 0 0 0 0 0 0 0 0 0 0 0 0 0 0 0 0 0 0 0 0 0 0 0 0 0 0 0 0 0 0 0 0 0 0 0 0 0 0 0
0 0 0 0 0 0 0 0 0 0 0 0 0 0 0 0 0 0 0 0 0 0 0 0 0 0 0 0 0 0 0 0 0 0 0 0 0 0 0 0 0 0 0
0 0 0 0 0 0 0 0 0 0 0 0 0 0 0 0 0 0 0 0 0 0 0 0 0 0 0 0 0 0 0 0 0 0 0 0 0 0 0 0 0 0 0
0 0 0 0 0 0 0 0 0 0 0 0 0 0 0 0 0 0 0 0 0 0 0 0 0 0 0 0 0 0 0 0 0 0 0 0 0 0 0 0 0 0 0
0 0 0 0 0 0 0 0 0 0 0 0 0 0 0 0 0 0 0 0 0 0 0 0 0 0 0 0 0 0 0 0 0 0 0 0 0 0 0 0 0 0 0
0 0 0 0 0 0 0 0 0 0 0 0 0 0 0 0 0 0 0 0 0 0 0 0 0 0 0 0 0 0 0 0 0 0 0 0 0 0 0 0 0 0 0
0 0 0 0 0 0 0 0 0 0 0 0 0 0 0 0 0 0 0 0 0 0 0 0 0 0 0 0 0 0 0 0 0 0 0 0 0 0 0 0 0 0 0
0 0 0 0 0 0 0 0 0 0 0 0 0 0 0 0 0 0 0 0 0 0 0 0 0 0 0 0 0 0 0 0 0 0 0 0 0 0 0 0 0 0 0
0 0 0 0 0 0 0 0 0 0 0 0 0 0 0 0 0 0 0 0 0 0 0 0 0 0 0 0 0 0 0 0 0 0 0 0 0 0 0 0 0 0 0
0 0 0 0 0 0 0 0 0 0 0 0 0 0 0 0 0 0 0 0 0 0 0 0 0 0 0 0 0 0 0 0 0 0 0 0 0 0 0 0 0 0 0
0 0 0 0 0 0 0 0 0 0 0 0 0 0 0 0 0 0 0 0 0 0 0 0 0 0 0 0 0 0 0 0 0 0 0 0 0 0 0 0 0 0 0
0 0 0 0 0 0 0 0 0 0 0 0 0 0 0 0 0 0 0 0 0 0 0 0 0 0 0 0 0 0 0 0 0 0 0 0 0 0 0 0 0 0 0
0 0 0 0 0 0 0 0 0 0 0 0 0 0 0 0 0 0 0 0 0 0 0 0 0 0 0 0 0 0 0 0 0 0 0 0 0 0 0 0 0 0 0
0 0 0 0 0 0 0 0 0 0 0 0 0 0 0 0 0 0 0 0 0 0 0 0 0 0 0 0 0 0 0 0 0 0 0 0 0 0 0 0 0 0 0
0 0 0 0 0 0 0 0 0 0 0 0 0 0 0 0 0 0 0 0 0 0 0 0 0 0 0 0 0 0 0 0 0 0 0 0 0 0 0 0 0 0 0
0 0 0 0 0 0 0 0 0 0 0 0 0 0 0 0 0 0 0 0 0 0 0 0 0 0 0 0 0 0 0 0 0 0 0 0 0 0 0 0 0 0 0
0 0 0 0 0 0 0 0 0 0 0 0 0 0 0 0 0 0 0 0 0 0 0 0 0 0 0 0 0 0 0 0 0 0 0 0 0 0 0 0 0 0 0
Wind_Speed
0 1 1 1 0 0 1 1 1 1 1 1 2 2 2 2 2 2 2 3 3 3 3 4 4 3 2 2 2 2 3 2 5 4 2 2 2 3 4 3 4 4 4
0 0 1 0 0 0 1 1 1 1 1 2 2 2 2 2 2 2 3 3 4 4 4 4 4 3 4 3 3 3 3 3 4 5 3 2 3 4 3 4 4 4 3
1 0 0 1 1 1 1 1 1 1 1 2 2 2 2 2 2 3 3 4 4 5 4 5 5 4 4 4 4 4 3 3 3 4 4 2 2 2 3 3 3 3 4
0 1 1 1 1 1 1 1 1 1 1 2 2 2 3 2 3 3 3 3 4 4 5 5 5 5 6 5 4 5 4 4 3 3 3 3 3 2 2 2 3 3 3
1 1 2 2 1 1 2 2 1 1 2 2 2 2 2 2 3 4 4 4 4 4 5 5 5 6 7 6 5 4 4 4 4 3 4 3 3 2 3 2 4 3 3
1 2 2 1 1 1 2 2 2 2 2 2 2 2 3 3 5 6 5 3 4 4 5 5 5 6 8 9 9 8 7 6 5 5 5 5 5 4 3 3 3 3 4
2 2 1 1 2 2 2 2 2 2 2 2 3 3 4 5 7 7 7 4 4 4 5 4 5 5 7 6 7 9 8 10 10 6 6 6 5 5 4 4 5 5 5
2 2 2 2 2 2 2 2 3 2 2 3 3 3 4 5 7 8 8 5 4 5 5 5 5 6 6 6 5 5 6 7 8 6 6 7 6 5 5 6 6 5 3
3 3 2 2 2 2 2 3 3 2 3 3 3 3 4 5 8 8 7 3 4 5 5 5 6 6 9 10 6 6 6 6 8 10 10 9 10 9 6 3 3 3 5
3 3 3 3 3 3 3 3 2 2 3 3 3 3 4 5 8 9 8 3 4 4 4 5 8 9 10 10 7 6 6 6 5 5 6 7 6 6 8 5 4 4 4
2 2 2 2 2 3 3 2 2 3 3 3 4 4 4 6 8 9 8 4 4 4 4 4 5 10 11 11 8 6 8 6 4 4 4 4 4 3 4 4 4 5 5
1 1 2 2 2 2 2 2 2 2 3 3 4 4 4 5 7 8 9 8 7 4 4 4 5 9 10 9 7 7 9 6 3 3 4 4 4 4 4 4 5 5 6
1 1 1 2 2 2 2 2 2 2 3 3 4 4 4 4 5 9 10 10 10 6 5 8 8 8 7 6 7 8 7 3 3 4 4 5 4 4 4 4 4 4 4
1 2 2 2 2 2 2 2 3 3 3 4 4 4 4 4 4 4 4 5 8 7 5 6 8 7 6 6 5 5 3 4 4 4 4 4 3 3 4 3 4 3 4
2 2 2 2 2 2 3 3 4 4 5 5 4 4 4 5 6 9 6 4 4 3 3 2 2 2 3 3 3 3 3 3 4 3 4 3 3 4 4 3 3 3 4
2 2 2 2 2 2 3 3 6 7 9 10 9 8 7 9 11 10 10 9 9 7 4 2 3 3 3 4 4 3 3 3 3 3 3 4 4 4 3 3 3 4 5
3 3 2 2 2 3 3 3 4 5 7 9 10 10 10 11 11 10 10 9 8 6 2 2 3 3 4 4 4 3 4 3 3 3 3 4 3 3 3 3 3 4 4
3 4 3 2 2 3 3 3 3 4 4 4 6 9 11 11 10 10 8 6 4 3 2 3 4 4 4 4 4 4 4 3 3 3 4 3 3 3 3 4 4 4 4
3 3 3 2 2 3 3 3 3 4 4 4 4 5 8 9 9 9 7 3 3 3 3 3 4 4 4 4 4 4 4 4 4 4 4 4 3 3 4 4 4 6 5
3 5 4 2 2 2 3 3 3 4 4 4 4 4 4 4 3 4 3 2 3 3 3 3 3 4 3 4 4 4 4 4 4 4 4 4 3 3 4 5 4 4 4
3 3 5 3 2 3 3 3 3 3 4 4 4 5 7 3 3 3 3 3 3 3 4 4 4 4 4 3 4 4 4 4 4 4 4 3 3 4 4 4 4 5 5
2 2 2 3 3 3 3 3 3 3 4 4 4 5 8 4 3 3 4 4 4 4 4 4 4 4 4 4 4 4 4 4 4 4 4 4 4 4 4 4 4 4 4
2 2 3 3 3 5 4 3 3 3 4 4 4 4 4 3 3 4 4 4 4 4 3 3 4 4 4 4 4 4 5 5 5 4 4 4 4 4 4 5 5 5 5
2 3 3 3 3 3 3 3 3 4 4 4 4 4 4 4 4 4 4 4 4 4 4 4 4 5 6 5 4 4 4 5 5 4 6 5 5 5 4 5 5 6 5
2 3 3 3 3 3 4 4 4 4 4 4 4 4 4 4 4 4 4 4 4 4 5 5 4 5 6 7 7 6 8 10 9 5 5 5 6 6 5 5 5 5 5
2 3 3 3 3 4 4 4 4 4 5 5 4 4 4 4 4 4 4 4 4 5 5 5 5 6 7 7 8 10 11 11 10 10 5 4 5 5 5 5 6 5 6
Wind_Direction
215 242 229 222 234 194 203 228 238 246 249 253 251 248 248 248 237 226 231 228 231 239 239 232 239 241 234 227 223 225 228 222 246 266 263 278 271 275 288 283 286 269 265
312 285 251 253 243 231 263 264 260 250 249 250 249 245 248 252 250 245 243 240 236 240 243 241 244 241 241 236 230 234 235 230 234 255 264 261 266 263 271 278 289 287 272
329 293 287 280 260 256 268 273 270 267 269 267 257 246 247 249 253 253 253 248 241 240 238 238 243 238 240 237 233 235 237 243 238 244 261 268 271 269 277 279 282 272 269
281 264 263 265 265 269 277 271 262 259 260 263 264 256 251 249 252 255 257 260 256 251 245 241 240 236 236 234 237 234 233 234 237 240 253 260 258 258 248 270 290 264 271
244 257 271 283 288 290 286 278 275 270 268 272 279 278 270 257 248 249 251 254 258 263 258 249 247 248 246 241 241 234 229 232 233 237 251 259 254 246 244 248 271 276 269
244 263 283 290 292 287 284 286 286 283 282 279 277 272 273 271 270 266 261 256 258 259 265 262 258 257 257 255 256 252 243 239 233 232 245 245 251 248 249 250 263 270 265
242 258 270 275 280 284 285 287 278 276 282 275 271 264 266 273 275 270 265 262 256 257 258 262 263 258 260 253 259 263 257 256 251 241 239 245 245 237 235 249 253 250 256
242 253 257 260 268 278 280 278 278 277 271 271 273 267 272 281 284 281 274 265 259 258 257 253 258 258 252 249 245 250 254 254 254 249 237 243 244 237 233 237 247 258 271
238 246 249 246 251 256 262 268 277 278 276 272 273 272 275 286 288 285 283 272 262 261 260 257 257 257 260 257 246 242 252 258 265 263 263 262 262 259 252 242 243 240 260
246 249 247 239 238 247 255 266 272 269 268 273 283 281 276 281 287 287 285 268 266 267 265 260 262 263 266 263 243 233 244 249 251 261 266 269 265 255 252 234 228 232 249
256 258 255 250 246 250 259 269 271 270 275 272 276 281 279 280 288 287 283 273 262 264 268 269 266 271 270 272 266 244 249 258 242 245 248 252 253 248 241 235 232 230 234
248 256 270 271 265 263 260 275 275 266 268 268 269 277 273 277 286 286 284 279 277 266 265 270 269 274 278 280 280 275 275 275 248 248 246 245 246 248 249 247 246 242 239
267 265 276 280 277 269 255 263 271 262 258 268 268 272 277 277 281 287 287 286 282 274 265 269 277 282 284 283 284 288 283 256 243 246 248 249 247 249 256 257 255 250 254
252 267 267 266 273 274 268 262 262 257 257 263 267 271 277 279 276 280 278 281 282 279 278 279 283 285 283 282 285 286 276 259 253 252 255 260 255 247 248 247 252 250 257
259 258 257 259 263 267 270 265 265 255 252 259 257 259 265 270 274 281 282 273 267 261 270 265 264 268 265 268 269 267 263 264 261 258 258 259 261 255 252 247 247 248 243
262 261 256 256 258 263 271 286 282 279 281 278 276 275 270 273 284 288 289 289 291 289 287 265 259 259 259 264 267 271 267 263 263 263 261 262 258 253 257 257 250 247 249
253 259 257 258 259 264 270 277 292 299 293 290 289 289 290 288 287 290 292 294 294 292 273 270 264 258 256 257 257 256 259 260 259 258 260 262 262 258 255 256 254 251 255
264 268 268 255 254 258 263 270 276 285 295 297 300 301 303 300 295 296 301 308 299 283 254 255 261 265 258 251 249 253 258 258 256 256 254 252 250 253 257 255 254 256 257
268 266 262 259 259 260 265 270 273 277 281 291 301 305 309 311 313 314 313 296 283 276 263 263 263 262 266 261 253 250 251 254 254 254 253 252 247 245 250 253 254 261 269
266 277 279 269 264 265 265 267 271 274 278 282 286 293 302 306 306 312 311 297 289 286 283 273 271 269 269 270 266 259 256 257 254 249 251 251 249 246 247 250 252 255 258
263 272 285 286 271 267 266 265 266 268 271 275 278 284 293 290 287 291 291 287 281 280 280 279 277 272 267 266 263 258 256 258 256 250 249 249 248 249 249 250 253 255 259
253 259 261 266 269 269 268 264 265 267 270 276 285 292 298 296 284 281 281 282 280 277 276 275 276 276 269 262 259 255 254 256 254 251 249 249 249 250 251 250 252 255 257
250 256 263 265 266 274 282 277 271 270 273 276 280 285 288 282 279 277 279 282 284 284 282 277 276 279 280 273 260 250 250 253 253 247 245 247 246 247 248 249 250 254 257
241 245 253 260 261 260 265 271 272 273 274 275 276 276 276 277 278 279 278 279 282 283 282 278 274 276 282 286 278 265 258 260 254 243 233 234 241 247 248 251 252 253 256
239 245 251 256 259 262 265 268 269 270 273 273 273 274 275 275 276 278 278 277 278 279 281 280 278 278 280 281 281 276 273 275 271 260 239 234 238 241 245 251 254 256 257
241 246 253 259 261 261 262 264 266 268 270 272 272 272 273 273 273 274 276 276 277 278 280 280 278 279 281 281 279 278 279 278 275 272 259 240 236 242 244 249 250 251 253